FW3054 Weather Reports


time (UTC)temp
C
wind
direction
speed
KPH
gust
KPH
rain 1hr
cm
rain 24hr
cm
rain mn
cm
humidity
%
barometer
mb
20260831164516 29 0 1.6 8.0 0.00 0.00 0.00 64 1024.3
20260831163515 28 23 1.6 3.2 0.00 0.00 0.00 66 1024.4
20260831162517 28 0 1.6 6.4 0.00 0.00 0.00 66 1024.4
20260831161515 28 23 1.6 4.8 0.00 0.00 0.00 67 1024.3
20260831160515 27 0.0 0.0 0.00 0.00 0.00 72 1024.4
20260831155515 27 0.0 3.2 0.00 0.00 0.00 72 1024.3
20260831154515 26 0.0 0.0 0.00 0.00 0.00 75 1024.4
20260831153515 26 0.0 3.2 0.00 0.00 0.00 77 1024.5
20260831152515 26 0.0 0.0 0.00 0.00 0.00 81 1024.7
20260831151515 25 0.0 1.6 0.00 0.00 0.00 82 1024.7
20260831150515 24 0.0 6.4 0.00 0.00 0.00 84 1024.6
20260831145515 23 0.0 0.0 0.00 0.00 0.00 86 1024.7
20260831144515 23 0.0 1.6 0.00 0.00 0.00 88 1024.6
20260831143515 22 0.0 1.6 0.00 0.00 0.00 90 1024.6
20260831142555 22 0.0 1.6 0.00 0.00 0.00 90 1024.5
20260831141515 21 0.0 0.0 0.00 0.00 0.00 89 1024.5
20260831140515 21 0.0 0.0 0.00 0.00 0.00 85 1024.3
20260831135515 20 0.0 0.0 0.00 0.00 0.00 80 1024.1
20260831134515 20 0.0 0.0 0.00 0.00 0.00 78 1024.1
20260831133515 20 0.0 0.0 0.00 0.00 0.00 78 1024.0
20260831132515 19 0.0 0.0 0.00 0.00 0.00 77 1024.2
20260831131515 19 0.0 0.0 0.00 0.00 0.00 77 1024.3
20260831130515 18 0.0 0.0 0.00 0.00 0.00 76 1024.2
20260831125515 18 0.0 0.0 0.00 0.00 0.00 76 1024.2
20260831124517 18 0.0 0.0 0.00 0.00 0.00 77 1024.0
20260831123517 18 0.0 0.0 0.00 0.00 0.00 77 1023.9
20260831122517 18 0.0 0.0 0.00 0.00 0.00 78 1024.0
20260831121517 18 0.0 0.0 0.00 0.00 0.00 79 1024.0
20260831120517 17 0.0 0.0 0.00 0.00 0.00 80 1023.8
20260831115517 17 0.0 0.0 0.00 0.00 0.00 81 1023.8
20260831114517 17 0.0 0.0 0.00 0.00 0.00 81 1023.7
20260831113517 17 0.0 0.0 0.00 0.00 0.00 82 1023.7
20260831112517 17 0.0 0.0 0.00 0.00 0.00 83 1023.8
20260831111517 17 0.0 0.0 0.00 0.00 0.00 83 1023.6
20260831110517 17 0.0 0.0 0.00 0.00 0.00 83 1023.7
20260831105517 17 0.0 0.0 0.00 0.00 0.00 83 1023.7
20260831104517 18 0.0 0.0 0.00 0.00 0.00 83 1023.6
20260831103517 18 0.0 0.0 0.00 0.00 0.00 84 1023.4
20260831102517 18 0.0 0.0 0.00 0.00 0.00 83 1023.4
20260831101557 18 0.0 0.0 0.00 0.00 0.00 83 1023.3
20260831100517 18 0.0 0.0 0.00 0.00 0.00 83 1023.4
20260831095517 18 0.0 0.0 0.00 0.00 0.00 83 1023.3
20260831094537 18 0.0 0.0 0.00 0.00 0.00 84 1023.2
20260831093517 18 0.0 0.0 0.00 0.00 0.00 84 1023.3
20260831092517 18 0.0 0.0 0.00 0.00 0.00 85 1023.6
20260831091537 18 0.0 0.0 0.00 0.00 0.00 85 1023.6
20260831090517 18 0.0 0.0 0.00 0.00 0.00 85 1023.4
20260831085517 18 0.0 0.0 0.00 0.00 0.00 85 1023.8
20260831084517 18 0.0 0.0 0.00 0.00 0.00 85 1023.7
20260831083517 18 0.0 0.0 0.00 0.00 0.00 85 1023.8
20260831082557 18 0.0 0.0 0.00 0.00 0.00 84 1023.4
20260831081517 18 0.0 0.0 0.00 0.00 0.00 85 1023.4
20260831080537 18 0.0 0.0 0.00 0.00 0.00 85 1023.5
20260831075517 18 0.0 0.0 0.00 0.00 0.00 85 1023.7
20260831074517 19 0.0 0.0 0.00 0.00 0.00 85 1023.9
20260831073517 19 0.0 0.0 0.00 0.00 0.00 86 1023.9
20260831072517 19 0.0 0.0 0.00 0.00 0.00 86 1023.9
20260831071517 19 0.0 0.0 0.00 0.00 0.00 86 1023.9
20260831070536 19 0.0 0.0 0.00 0.00 0.00 87 1023.8
20260831065516 19 0.0 0.0 0.00 0.00 0.00 87 1023.7
20260831064517 19 0.0 0.0 0.00 0.00 0.00 87 1023.7
20260831063517 19 0.0 0.0 0.00 0.00 0.00 87 1023.6
20260831062517 20 0.0 0.0 0.00 0.00 0.00 87 1023.8
20260831061517 20 0.0 0.0 0.00 0.00 0.00 88 1023.9
20260831060516 20 0.0 0.0 0.00 0.00 0.00 88 1024.0
20260831055517 20 0.0 0.0 0.00 0.00 0.00 88 1024.0
20260831054517 20 0.0 0.0 0.00 0.00 0.00 89 1023.8
20260831053516 20 0.0 0.0 0.00 0.00 0.00 89 1024.1
20260831052517 20 0.0 0.0 0.00 0.00 0.00 89 1023.8
20260831051516 20 0.0 0.0 0.00 0.00 0.00 89 1023.9
20260831050516 20 0.0 0.0 0.00 0.00 0.00 89 1023.8
20260831045516 20 0.0 0.0 0.00 0.00 0.00 89 1023.6
20260831044516 20 0.0 0.0 0.00 0.00 0.00 90 1023.6
20260831043516 20 0.0 0.0 0.00 0.00 0.00 90 1023.7
20260831042518 21 0.0 0.0 0.00 0.00 0.00 90 1023.5
20260831041536 21 0.0 0.0 0.00 0.00 0.00 90 1023.5
20260831040516 21 0.0 0.0 0.00 0.00 0.00 90 1023.5
20260831035516 21 0.0 0.0 0.00 0.00 0.00 89 1023.3
20260831034517 21 0.0 0.0 0.00 0.00 0.00 89 1023.5
20260831033517 21 0.0 0.0 0.00 0.00 0.00 89 1023.5
20260831032516 22 0.0 0.0 0.00 0.00 0.00 89 1023.5
20260831031516 22 0.0 0.0 0.00 0.00 0.00 88 1023.6
20260831030557 22 0.0 0.0 0.00 0.00 0.00 88 1023.6
20260831025516 22 0.0 0.0 0.00 0.00 0.00 88 1023.6
20260831024536 22 0.0 0.0 0.00 0.00 0.00 87 1023.7
20260831023517 22 0.0 0.0 0.00 0.00 0.00 87 1023.7
20260831022517 23 0.0 1.6 0.00 0.00 0.00 86 1023.6
20260831021517 23 0.0 1.6 0.00 0.00 0.00 85 1023.6
20260831020516 23 0.0 0.0 0.00 0.00 0.00 84 1023.5
20260831015517 23 0.0 0.0 0.00 0.00 0.00 83 1023.4
20260831014536 24 0.0 1.6 0.00 0.00 0.00 83 1023.4
20260831013516 24 0.0 0.0 0.00 0.00 0.00 82 1023.3
20260831012516 24 0.0 0.0 0.00 0.00 0.00 81 1023.0
20260831011516 24 0.0 0.0 0.00 0.00 0.00 82 1022.8
20260831010536 24 0.0 0.0 0.00 0.00 0.00 82 1022.6
20260831005516 24 0.0 1.6 0.00 0.00 0.00 83 1022.5
20260831004516 24 0.0 3.2 0.00 0.00 0.00 83 1022.4
20260831003536 24 0.0 3.2 0.00 0.00 0.00 82 1022.4
20260831002516 25 0.0 1.6 0.00 0.00 0.00 81 1022.4
20260831001516 25 0.0 1.6 0.00 0.00 0.00 80 1022.5
20260831000516 25 0.0 0.0 0.00 0.00 0.00 79 1022.4
20260830235516 25 0.0 0.0 0.00 0.00 0.00 78 1022.3
20260830234516 25 0.0 0.0 0.00 0.00 0.00 78 1022.2
20260830233516 25 0.0 1.6 0.00 0.00 0.00 78 1022.0
20260830232516 26 0.0 0.0 0.00 0.00 0.00 77 1022.1
20260830231516 26 0.0 1.6 0.00 0.00 0.00 76 1022.1
20260830230516 26 0.0 0.0 0.00 0.00 0.00 75 1022.0
20260830225516 26 0.0 1.6 0.00 0.00 0.00 75 1022.1
20260830224516 27 0.0 1.6 0.00 0.00 0.00 74 1022.3
20260830223516 27 0.0 1.6 0.00 0.00 0.00 70 1022.2
20260830222516 27 0.0 0.0 0.00 0.00 0.00 70 1022.2
20260830221516 27 0.0 0.0 0.00 0.00 0.00 68 1022.3
20260830220516 27 0.0 0.0 0.00 0.00 0.00 68 1022.1
20260830215516 28 0.0 0.0 0.00 0.00 0.00 68 1022.1
20260830214516 28 0.0 0.0 0.00 0.00 0.00 64 1022.2
20260830213536 28 0.0 0.0 0.00 0.00 0.00 59 1022.1
20260830212516 29 0.0 0.0 0.00 0.00 0.00 58 1022.2
20260830211516 29 0.0 0.0 0.00 0.00 0.00 58 1022.3
20260830210516 30 0.0 0.0 0.00 0.00 0.00 55 1022.3
20260830205516 31 0.0 1.6 0.00 0.00 0.00 53 1022.4
20260830204516 31 0.0 3.2 0.00 0.00 0.00 52 1022.6
20260830203516 32 0.0 0.0 0.00 0.00 0.00 55 1022.6
20260830202516 32 0.0 1.6 0.00 0.00 0.00 51 1022.7
20260830201556 32 0.0 1.6 0.00 0.00 0.00 51 1022.6
20260830200516 32 0.0 1.6 0.00 0.00 0.00 54 1022.8
20260830195516 31 0.0 1.6 0.00 0.00 0.00 53 1022.9
20260830194516 32 135 1.6 1.6 0.00 0.00 0.00 53 1023.0
20260830193516 32 0.0 1.6 0.00 0.00 0.00 53 1023.1
20260830192556 32 0.0 1.6 0.00 0.00 0.00 53 1023.4
20260830191536 32 0.0 3.2 0.00 0.00 0.00 53 1023.6
20260830190516 32 0.0 1.6 0.00 0.00 0.00 54 1023.9
20260830185515 31 0.0 1.6 0.00 0.00 0.00 55 1023.8
20260830184515 31 0.0 3.2 0.00 0.00 0.00 56 1024.0
20260830183516 31 135 1.6 1.6 0.00 0.00 0.00 58 1024.2
20260830182516 30 0.0 3.2 0.00 0.00 0.00 59 1024.4
20260830181536 30 0.0 0.0 0.00 0.00 0.00 59 1024.5
20260830180516 30 0.0 0.0 0.00 0.00 0.00 59 1024.7
20260830175535 30 0.0 0.0 0.00 0.00 0.00 62 1024.8
20260830174515 30 0.0 0.0 0.00 0.00 0.00 62 1025.1
20260830173515 30 0.0 0.0 0.00 0.00 0.00 64 1025.0
20260830172536 29 0.0 0.0 0.00 0.00 0.00 65 1025.1
20260830171516 29 0.0 0.0 0.00 0.00 0.00 66 1025.3
20260830170516 28 0.0 0.0 0.00 0.00 0.00 69 1025.4
20260830165535 28 0.0 0.0 0.00 0.00 0.00 70 1025.4